Home   Weather   USA   Breckenridge   Past weeks
Flag for USA

Past Weather in Breckenridge, Colorado, USA — Yesterday and Last 2 Weeks

Currently: 64 °F. Scattered clouds. (Weather station: Copper Mountain - Red Cliff Pass, USA). See more current weather

Past Weather in Breckenridge — Graph

°F

Breckenridge Temperature Yesterday

Maximum temperature yesterday: 64 °F (at 3:55 pm)
Minimum temperature yesterday: 45 °F (at 4:35 am)
Average temperature yesterday: 55 °F

High & Low Weather Summary for the Past Weeks

 TemperatureHumidityPressure
High73 °F (Jun 13, 1:35 pm)76% (Jun 18, 7:15 pm)30.85 "Hg (Jun 18, 7:15 pm)
Low45 °F (Jun 21, 4:35 am)5% (Jun 9, 1:55 pm)30.42 "Hg (Jun 7, 5:55 pm)
Average60 °F23%30.62 "Hg
* Reported Jun 7 11:15 am — Jun 22 11:35 am, Breckenridge. Weather by CustomWeather, © 2021

Note: Actual official high and low records may vary slightly from our data, if they occured in-between our weather recording intervals... More about our weather records

Breckenridge Weather History for the Previous 24 Hours

Scroll right to see more
 ConditionsComfort  
Time TempWeatherWind HumidityBarometerVisibility
11:35 am
Tue, Jun 22
63 °FSunny.16 mph24%30.57 "HgN/A
11:15 am63 °FScattered clouds.15 mph22%30.56 "Hg10 mi
10:55 am61 °FPartly sunny.22 mph22%30.55 "HgN/A
10:35 am61 °FPartly sunny.20 mph22%30.56 "HgN/A
10:15 am61 °FPartly sunny.28 mph22%30.55 "HgN/A
9:55 am61 °FSunny.14 mph20%30.56 "HgN/A
9:35 am59 °FSunny.18 mph20%30.55 "HgN/A
9:15 am61 °FScattered clouds.21 mph22%30.55 "HgN/A
8:55 am59 °FScattered clouds.22 mph21%30.55 "HgN/A
8:35 am59 °FScattered clouds.23 mph21%30.54 "HgN/A
8:15 am59 °FPartly sunny.22 mph21%30.54 "HgN/A
7:55 am59 °FPartly sunny.16 mph23%30.54 "HgN/A
7:35 am59 °FScattered clouds.13 mph25%30.54 "HgN/A
7:15 am57 °FSunny.9 mph25%30.54 "HgN/A
6:55 am55 °FScattered clouds.22 mph26%30.52 "Hg10 mi
6:35 am55 °FScattered clouds.15 mph24%30.53 "Hg10 mi
6:15 am55 °FScattered clouds.23 mph26%30.52 "Hg10 mi
5:55 am55 °FSunny.15 mph26%30.52 "Hg10 mi
5:35 am55 °FClear.22 mph24%30.52 "Hg10 mi
5:15 am55 °FClear.21 mph24%30.51 "Hg10 mi
4:55 am55 °FClear.16 mph24%30.52 "Hg10 mi
4:35 am55 °FClear.15 mph24%30.52 "Hg10 mi
4:15 am55 °FClear.15 mph26%30.52 "Hg10 mi
3:55 am54 °FClear.17 mph28%30.52 "Hg10 mi
3:35 am55 °FClear.20 mph28%30.52 "Hg10 mi
3:15 am55 °FClear.26 mph28%30.52 "Hg10 mi
2:55 am55 °FClear.29 mph26%30.52 "Hg10 mi
2:35 am55 °FClear.23 mph24%30.53 "Hg10 mi
1:35 am55 °FClear.21 mph24%30.55 "Hg10 mi
1:15 am54 °FClear.21 mph24%30.55 "Hg10 mi
12:55 am55 °FClear.15 mph23%30.56 "Hg10 mi
12:15 am54 °FClear.7 mph24%30.57 "Hg10 mi
11:55 pm
Mon, Jun 21
54 °FClear.9 mph26%30.58 "Hg10 mi
11:35 pm54 °FClear.8 mph24%30.58 "Hg10 mi
11:15 pm54 °FClear.8 mph24%30.59 "Hg10 mi
10:55 pm54 °FClear.10 mph24%30.59 "Hg10 mi
10:35 pm54 °FClear.8 mph22%30.59 "Hg10 mi
10:15 pm55 °FClear.12 mph19%30.59 "Hg10 mi
9:55 pm55 °FClear.12 mph23%30.59 "Hg10 mi
9:35 pm55 °FClear.16 mph23%30.59 "Hg10 mi
9:15 pm57 °FClear.14 mph21%30.58 "Hg10 mi
8:55 pm59 °FClear.21 mph21%30.57 "HgN/A
8:35 pm59 °FClear.17 mph18%30.57 "HgN/A
8:15 pm59 °FSunny.23 mph17%30.57 "HgN/A
7:55 pm61 °FSunny.16 mph17%30.57 "HgN/A
7:35 pm61 °FSunny.20 mph15%30.56 "HgN/A
7:15 pm61 °FSunny.17 mph15%30.56 "HgN/A
6:55 pm63 °FSunny.22 mph14%30.55 "HgN/A
6:15 pm64 °FSunny.20 mph18%30.55 "HgN/A
5:55 pm64 °FSunny.20 mph21%30.55 "HgN/A
5:35 pm64 °FSunny.16 mph22%30.55 "HgN/A
5:15 pm64 °FSunny.17 mph22%30.56 "HgN/A
4:55 pm64 °FSunny.20 mph21%30.56 "HgN/A
4:35 pm64 °FSunny.16 mph21%30.56 "HgN/A
4:15 pm64 °FSunny.18 mph21%30.56 "HgN/A
3:55 pm64 °FSunny.18 mph22%30.56 "HgN/A
3:35 pm61 °FSunny.18 mph23%30.57 "HgN/A
3:15 pm61 °FSunny.23 mph25%30.57 "HgN/A
2:55 pm61 °FSunny.16 mph27%30.58 "HgN/A
2:35 pm61 °FScattered clouds.14 mph27%30.58 "HgN/A
2:15 pm61 °FScattered clouds.14 mph25%30.57 "HgN/A
1:55 pm61 °FSunny.8 mph25%30.58 "HgN/A
1:35 pm59 °FSunny.10 mph25%30.57 "HgN/A
1:15 pm59 °FSunny.18 mph23%30.57 "Hg10 mi
12:55 pm59 °FSunny.17 mph25%30.57 "Hg10 mi
12:35 pm59 °FSunny.13 mph23%30.57 "Hg10 mi
12:15 pm59 °FSunny.12 mph23%30.57 "Hg10 mi
Weather by CustomWeather, © 2021

See weather overview